Snow/Ice From: 17-12-2017 10:00 Until: 18-12-2017 06:00 warning for: Snow/Ice Level: Yellow info button

Although rather usual in this region, locally or potentially dangerous phenomena are expected. (such as local winds, summer thunderstorms, rising streams or high waves) Be aware and pay attention to the latest weather updates, especially if you carry out activities exposed to weather or close to a stream or shoreline. 


Meteo18 Weather Cam more information Meteo18 Weather Cam


Thunder radar more information blitzortung!


warning for Snow/Ice more information rain snow radar


Visit our other weather sites:

Template documentation
and downloads

And another site



Weather Underground History page Text

Daily Summary for January 10, 2016 Units:  Metric    English   Both
« Previous Day
Next Day »
Daily Weekly Monthly Yearly Custom
  High: Low: Average:
Temperature: 7.8 °C 5.5 °C 6.5 °C
Dew Point: 6.3 °C 4.9 °C 5.6 °C
Humidity: 96 % 90 % 94 %
Wind Speed: 17.7 km/h 0.0 km/h 4.3 km/h
Wind Gust: 24.1 km/h - -
Wind:- - SW
Pressure: 997.9 hPa 994.5 hPa -
Precipitation: 8.9 mm    
Historical Graphs
 
 
Tabular Data for January 10, 2016
Time Temperature Dew Point Pressure Wind Wind Speed Wind Gust Humidity Rainfall Rate (Hourly)
00:02 7.8 °C 6.3 °C 997.9 hPa WSW 6.4 km/h 20.9 km/h 90 % 2.0 mm
00:07 7.6 °C 6.1 °C 997.9 hPa West 8.0 km/h 20.9 km/h 90 % 2.3 mm
00:12 7.6 °C 6.2 °C 997.9 hPa WSW 3.2 km/h 17.7 km/h 91 % 2.3 mm
00:17 7.4 °C 6.2 °C 997.9 hPa WSW 8.0 km/h 17.7 km/h 92 % 2.5 mm
00:22 7.3 °C 6.1 °C 997.9 hPa WSW 4.8 km/h 17.7 km/h 92 % 2.8 mm
00:27 7.3 °C 6.1 °C 997.2 hPa SW 8.0 km/h 11.3 km/h 92 % 3.0 mm
00:32 7.2 °C 6.1 °C 997.2 hPa SW 1.6 km/h 11.3 km/h 93 % 2.8 mm
00:42 7.1 °C 6.0 °C 995.8 hPa West 1.6 km/h 9.7 km/h 93 % 2.3 mm
00:47 6.9 °C 6.0 °C 996.5 hPa Calm   8.0 km/h 94 % 2.0 mm
00:52 6.9 °C 6.0 °C 996.8 hPa SSW 1.6 km/h 8.0 km/h 94 % 1.8 mm
01:02 6.7 °C 5.8 °C 996.2 hPa SW 1.6 km/h 8.0 km/h 94 % 1.5 mm
01:07 6.7 °C 6.0 °C 996.5 hPa SSW 6.4 km/h 8.0 km/h 95 % 1.0 mm
01:12 6.7 °C 6.0 °C 996.5 hPa SW 4.8 km/h 8.0 km/h 95 % 1.0 mm
01:17 6.7 °C 6.0 °C 996.5 hPa SW 4.8 km/h 8.0 km/h 95 % 0.8 mm
01:22 6.7 °C 6.0 °C 996.5 hPa WSW 1.6 km/h 8.0 km/h 95 % 0.5 mm
01:32 6.7 °C 6.0 °C 996.2 hPa SW 6.4 km/h 6.4 km/h 95 % 0.3 mm
01:37 6.7 °C 5.8 °C 996.2 hPa SW 3.2 km/h 9.7 km/h 94 % 0.0 mm
01:42 6.8 °C 5.9 °C 996.5 hPa SW 4.8 km/h 9.7 km/h 94 % 0.0 mm
01:47 6.8 °C 5.9 °C 996.5 hPa WSW 6.4 km/h 9.7 km/h 94 % 0.0 mm
01:52 6.9 °C 6.0 °C 996.8 hPa SW 6.4 km/h 9.7 km/h 94 % 0.0 mm
01:57 7.0 °C 5.9 °C 996.8 hPa ESE 1.6 km/h 12.9 km/h 93 % 0.0 mm
02:02 7.1 °C 6.0 °C 996.8 hPa SW 6.4 km/h 12.9 km/h 93 % 0.0 mm
02:07 7.0 °C 5.9 °C 996.8 hPa WSW 4.8 km/h 12.9 km/h 93 % 0.0 mm
02:12 7.0 °C 5.9 °C 996.5 hPa SW 4.8 km/h 12.9 km/h 93 % 0.0 mm
02:17 6.9 °C 5.8 °C 996.5 hPa WSW 3.2 km/h 9.7 km/h 93 % 0.0 mm
02:22 6.9 °C 6.0 °C 996.8 hPa SE 4.8 km/h 8.0 km/h 94 % 0.0 mm
02:27 6.9 °C 5.8 °C 996.8 hPa East 3.2 km/h 6.4 km/h 93 % 0.0 mm
02:32 6.9 °C 5.8 °C 996.8 hPa West 3.2 km/h 6.4 km/h 93 % 0.0 mm
02:37 6.9 °C 5.8 °C 997.2 hPa SW 3.2 km/h 8.0 km/h 93 % 0.0 mm
02:42 6.9 °C 6.0 °C 996.8 hPa WSW 3.2 km/h 8.0 km/h 94 % 0.0 mm
02:47 7.1 °C 6.0 °C 996.8 hPa SW 3.2 km/h 12.9 km/h 93 % 0.0 mm
02:52 7.1 °C 6.0 °C 996.8 hPa SW 3.2 km/h 12.9 km/h 93 % 0.0 mm
02:57 7.1 °C 6.0 °C 996.8 hPa SW 3.2 km/h 12.9 km/h 93 % 0.0 mm
03:02 7.2 °C 6.0 °C 996.8 hPa SSE 1.6 km/h 11.3 km/h 92 % 0.0 mm
03:07 7.3 °C 6.1 °C 997.2 hPa SW 3.2 km/h 9.7 km/h 92 % 0.0 mm
03:12 7.4 °C 6.2 °C 997.2 hPa WSW 3.2 km/h 9.7 km/h 92 % 0.0 mm
03:17 7.4 °C 6.2 °C 996.8 hPa SW 3.2 km/h 9.7 km/h 92 % 0.0 mm
03:22 7.5 °C 6.1 °C 996.8 hPa SSW 6.4 km/h 8.0 km/h 91 % 0.0 mm
03:27 7.6 °C 6.1 °C 996.5 hPa SW 3.2 km/h 9.7 km/h 90 % 0.0 mm
03:32 7.6 °C 6.2 °C 996.5 hPa Calm   9.7 km/h 91 % 0.0 mm
03:37 7.5 °C 6.3 °C 996.5 hPa SW 3.2 km/h 9.7 km/h 92 % 0.0 mm
03:42 7.4 °C 6.2 °C 996.5 hPa WSW 6.4 km/h 9.7 km/h 92 % 0.5 mm
03:47 7.4 °C 6.2 °C 996.8 hPa SW 4.8 km/h 11.3 km/h 92 % 0.5 mm
03:52 7.4 °C 6.3 °C 997.2 hPa SSW 1.6 km/h 11.3 km/h 93 % 0.5 mm
03:57 7.3 °C 6.2 °C 997.5 hPa WSW 3.2 km/h 11.3 km/h 93 % 0.8 mm
04:07 7.2 °C 6.0 °C 997.2 hPa SW 6.4 km/h 9.7 km/h 92 % 1.0 mm
04:12 7.2 °C 6.0 °C 997.2 hPa SW 8.0 km/h 12.9 km/h 92 % 1.3 mm
04:17 7.1 °C 5.9 °C 997.5 hPa South 8.0 km/h 14.5 km/h 92 % 1.5 mm
04:22 6.9 °C 5.7 °C 997.2 hPa SW 6.4 km/h 14.5 km/h 92 % 1.5 mm
04:27 6.7 °C 5.5 °C 997.5 hPa SSE 6.4 km/h 14.5 km/h 92 % 1.5 mm
04:32 6.7 °C 5.5 °C 997.5 hPa WSW 1.6 km/h 12.9 km/h 92 % 1.5 mm
04:37 6.7 °C 5.5 °C 997.5 hPa WSW 8.0 km/h 12.9 km/h 92 % 1.3 mm
04:42 6.6 °C 5.5 °C 997.2 hPa WSW 4.8 km/h 14.5 km/h 93 % 1.0 mm
04:47 6.5 °C 5.4 °C 997.2 hPa SW 3.2 km/h 14.5 km/h 93 % 1.3 mm
04:52 6.4 °C 5.4 °C 997.2 hPa SSW 1.6 km/h 14.5 km/h 93 % 0.8 mm
04:57 6.4 °C 5.4 °C 997.5 hPa WSW 8.0 km/h 14.5 km/h 93 % 0.8 mm
05:02 6.4 °C 5.4 °C 997.9 hPa WSW 6.4 km/h 12.9 km/h 93 % 0.5 mm
05:07 6.4 °C 5.4 °C 997.2 hPa SSW 4.8 km/h 16.1 km/h 93 % 0.8 mm
05:12 6.4 °C 5.4 °C 997.2 hPa SW 6.4 km/h 16.1 km/h 93 % 1.3 mm
05:17 6.5 °C 5.3 °C 997.2 hPa WSW 4.8 km/h 16.1 km/h 92 % 1.5 mm
05:22 6.6 °C 5.4 °C 996.8 hPa SW 4.8 km/h 16.1 km/h 92 % 1.5 mm
05:27 6.6 °C 5.4 °C 996.8 hPa SW 6.4 km/h 16.1 km/h 92 % 1.5 mm
05:32 6.6 °C 5.4 °C 996.8 hPa WSW 4.8 km/h 16.1 km/h 92 % 1.5 mm
05:37 6.7 °C 5.3 °C 996.8 hPa SW 6.4 km/h 16.1 km/h 91 % 1.5 mm
05:42 6.8 °C 5.4 °C 996.8 hPa SW 3.2 km/h 14.5 km/h 91 % 1.5 mm
05:47 6.8 °C 5.4 °C 996.8 hPa WSW 8.0 km/h 14.5 km/h 91 % 1.5 mm
05:52 6.7 °C 5.5 °C 996.8 hPa SW 4.8 km/h 14.5 km/h 92 % 1.5 mm
05:57 6.6 °C 5.5 °C 996.8 hPa SW 4.8 km/h 12.9 km/h 93 % 1.5 mm
06:02 6.6 °C 5.5 °C 996.8 hPa WSW 8.0 km/h 12.9 km/h 93 % 1.3 mm
06:07 6.6 °C 5.7 °C 996.8 hPa SW 4.8 km/h 11.3 km/h 94 % 0.8 mm
06:12 6.5 °C 5.6 °C 996.8 hPa SW 3.2 km/h 11.3 km/h 94 % 0.5 mm
06:17 6.5 °C 5.6 °C 996.8 hPa SSW 4.8 km/h 11.3 km/h 94 % 0.5 mm
06:22 6.6 °C 5.7 °C 996.8 hPa SW 4.8 km/h 8.0 km/h 94 % 0.3 mm
06:27 6.6 °C 5.7 °C 996.8 hPa SW 4.8 km/h 8.0 km/h 94 % 0.0 mm
06:32 6.6 °C 5.7 °C 996.8 hPa SW 1.6 km/h 8.0 km/h 94 % 0.0 mm
06:37 6.6 °C 5.7 °C 996.8 hPa Calm   8.0 km/h 94 % 0.0 mm
06:42 6.4 °C 5.5 °C 996.8 hPa Calm   4.8 km/h 94 % 0.0 mm
06:52 6.2 °C 5.5 °C 996.8 hPa West 1.6 km/h 4.8 km/h 95 % 0.0 mm
06:57 6.2 °C 5.5 °C 996.8 hPa SW 3.2 km/h 4.8 km/h 95 % 0.0 mm
07:02 6.2 °C 5.5 °C 996.8 hPa SSW 1.6 km/h 4.8 km/h 95 % 0.0 mm
07:07 6.1 °C 5.5 °C 996.8 hPa Calm   4.8 km/h 96 % 0.0 mm
07:12 6.0 °C 5.3 °C 996.8 hPa Calm   4.8 km/h 95 % 0.0 mm
07:17 5.9 °C 5.2 °C 996.8 hPa Calm   3.2 km/h 95 % 0.0 mm
07:22 5.7 °C 5.1 °C 996.8 hPa Calm   3.2 km/h 96 % 0.0 mm
07:27 5.7 °C 5.1 °C 996.8 hPa Calm   3.2 km/h 96 % 0.0 mm
07:32 5.6 °C 5.0 °C 996.8 hPa Calm   3.2 km/h 96 % 0.0 mm
07:37 5.6 °C 5.0 °C 996.8 hPa Calm   1.6 km/h 96 % 0.0 mm
07:42 5.6 °C 5.0 °C 996.8 hPa Calm   1.6 km/h 96 % 0.0 mm
07:52 5.6 °C 5.0 °C 996.8 hPa Calm   1.6 km/h 96 % 0.0 mm
07:57 5.6 °C 5.0 °C 996.8 hPa Calm   1.6 km/h 96 % 0.0 mm
08:02 5.6 °C 5.0 °C 996.5 hPa Calm   1.6 km/h 96 % 0.0 mm
08:07 5.6 °C 5.0 °C 996.5 hPa SW 1.6 km/h 1.6 km/h 96 % 0.0 mm
08:12 5.7 °C 5.1 °C 996.5 hPa Calm   3.2 km/h 96 % 0.0 mm
08:17 5.7 °C 5.1 °C 996.5 hPa WSW 3.2 km/h 3.2 km/h 96 % 0.0 mm
08:22 5.8 °C 5.2 °C 996.5 hPa WSW 3.2 km/h 4.8 km/h 96 % 0.0 mm
08:27 5.9 °C 5.3 °C 996.5 hPa SW 3.2 km/h 6.4 km/h 96 % 0.0 mm
08:32 6.0 °C 5.3 °C 996.5 hPa SW 4.8 km/h 6.4 km/h 95 % 0.0 mm
08:37 6.1 °C 5.4 °C 996.5 hPa WSW 3.2 km/h 6.4 km/h 95 % 0.0 mm
08:42 6.2 °C 5.5 °C 996.5 hPa Calm   6.4 km/h 95 % 0.0 mm
08:47 6.2 °C 5.5 °C 996.5 hPa SSW 6.4 km/h 6.4 km/h 95 % 0.0 mm
08:52 6.3 °C 5.6 °C 996.5 hPa SSE 3.2 km/h 6.4 km/h 95 % 0.0 mm
08:57 6.4 °C 5.5 °C 996.5 hPa WNW 3.2 km/h 11.3 km/h 94 % 0.0 mm
09:02 6.6 °C 5.7 °C 996.5 hPa WSW 4.8 km/h 11.3 km/h 94 % 0.0 mm
09:07 6.6 °C 5.5 °C 996.5 hPa SW 8.0 km/h 11.3 km/h 93 % 0.0 mm
09:12 6.7 °C 5.6 °C 996.5 hPa West 4.8 km/h 12.9 km/h 93 % 0.0 mm
09:17 6.7 °C 5.6 °C 996.5 hPa SW 9.7 km/h 12.9 km/h 93 % 0.0 mm
09:22 6.8 °C 5.6 °C 996.5 hPa South 3.2 km/h 12.9 km/h 92 % 0.0 mm
09:27 7.0 °C 5.6 °C 996.8 hPa SW 8.0 km/h 12.9 km/h 91 % 0.0 mm
09:32 7.0 °C 5.6 °C 996.8 hPa WSW 4.8 km/h 17.7 km/h 91 % 0.0 mm
09:37 7.0 °C 5.6 °C 996.8 hPa West 9.7 km/h 17.7 km/h 91 % 0.0 mm
09:42 7.0 °C 5.8 °C 997.2 hPa ESE 9.7 km/h 17.7 km/h 92 % 0.0 mm
09:47 6.9 °C 5.7 °C 996.8 hPa WSW 3.2 km/h 14.5 km/h 92 % 0.0 mm
09:52 6.8 °C 5.7 °C 996.8 hPa WSW 3.2 km/h 14.5 km/h 93 % 0.3 mm
09:57 6.8 °C 5.6 °C 996.8 hPa SW 3.2 km/h 14.5 km/h 92 % 0.3 mm
10:02 6.8 °C 5.6 °C 996.8 hPa SSW 6.4 km/h 12.9 km/h 92 % 0.3 mm
10:07 6.8 °C 5.6 °C 997.2 hPa South 3.2 km/h 12.9 km/h 92 % 0.3 mm
10:12 6.8 °C 5.6 °C 997.2 hPa WSW 9.7 km/h 12.9 km/h 92 % 0.3 mm
10:17 6.8 °C 5.6 °C 997.2 hPa SW 4.8 km/h 16.1 km/h 92 % 0.3 mm
10:22 6.8 °C 5.6 °C 996.8 hPa WSW 11.3 km/h 16.1 km/h 92 % 0.5 mm
10:32 6.7 °C 5.5 °C 997.2 hPa WSW 16.1 km/h 19.3 km/h 92 % 0.5 mm
10:37 6.6 °C 5.4 °C 997.2 hPa WSW 17.7 km/h 22.5 km/h 92 % 0.5 mm
10:42 6.5 °C 5.3 °C 997.2 hPa SW 11.3 km/h 24.1 km/h 92 % 0.5 mm
10:47 6.4 °C 5.2 °C 997.5 hPa WSW 9.7 km/h 24.1 km/h 92 % 0.3 mm
10:52 6.4 °C 5.4 °C 997.5 hPa SW 9.7 km/h 24.1 km/h 93 % 0.3 mm
11:02 6.2 °C 5.2 °C 997.5 hPa SW 9.7 km/h 19.3 km/h 93 % 0.5 mm
11:07 6.1 °C 5.2 °C 997.5 hPa ENE 3.2 km/h 19.3 km/h 94 % 0.5 mm
11:12 5.9 °C 5.0 °C 997.5 hPa SW 12.9 km/h 17.7 km/h 94 % 0.8 mm
11:17 5.9 °C 5.0 °C 997.5 hPa West 8.0 km/h 17.7 km/h 94 % 0.8 mm
11:22 5.8 °C 4.9 °C 997.5 hPa WSW 6.4 km/h 19.3 km/h 94 % 0.5 mm
11:32 5.8 °C 5.1 °C 997.5 hPa SW 3.2 km/h 20.9 km/h 95 % 0.8 mm
11:37 5.8 °C 5.1 °C 997.5 hPa SSW 6.4 km/h 20.9 km/h 95 % 0.8 mm
11:42 5.7 °C 5.0 °C 997.2 hPa SW 9.7 km/h 16.1 km/h 95 % 1.0 mm
11:47 5.7 °C 5.0 °C 997.2 hPa WSW 3.2 km/h 19.3 km/h 95 % 1.0 mm
11:52 5.7 °C 5.0 °C 996.8 hPa WSW 6.4 km/h 19.3 km/h 95 % 1.3 mm
11:57 5.7 °C 5.0 °C 996.8 hPa SW 4.8 km/h 19.3 km/h 95 % 1.0 mm
12:02 5.7 °C 5.0 °C 996.8 hPa SW 6.4 km/h 14.5 km/h 95 % 1.3 mm
12:07 5.7 °C 5.0 °C 996.5 hPa SW 6.4 km/h 12.9 km/h 95 % 1.0 mm
12:12 5.7 °C 5.0 °C 996.5 hPa SW 9.7 km/h 12.9 km/h 95 % 0.8 mm
12:17 5.7 °C 5.0 °C 996.5 hPa SSW 6.4 km/h 12.9 km/h 95 % 0.8 mm
12:22 5.7 °C 5.0 °C 996.2 hPa WSW 3.2 km/h 16.1 km/h 95 % 0.5 mm
12:27 5.7 °C 5.0 °C 996.2 hPa West 6.4 km/h 16.1 km/h 95 % 0.5 mm
12:32 5.7 °C 5.0 °C 996.2 hPa WSW 9.7 km/h 16.1 km/h 95 % 0.8 mm
12:42 5.8 °C 5.1 °C 995.8 hPa West 6.4 km/h 12.9 km/h 95 % 0.5 mm
12:47 5.8 °C 5.1 °C 995.8 hPa SSW 4.8 km/h 17.7 km/h 95 % 0.5 mm
12:52 5.8 °C 5.1 °C 995.8 hPa SSW 3.2 km/h 17.7 km/h 95 % 0.5 mm
12:57 5.8 °C 5.1 °C 995.8 hPa ESE 3.2 km/h 17.7 km/h 95 % 0.5 mm
13:02 5.8 °C 5.1 °C 995.8 hPa SW 8.0 km/h 14.5 km/h 95 % 0.8 mm
13:07 5.8 °C 5.1 °C 995.8 hPa WSW 14.5 km/h 16.1 km/h 95 % 0.8 mm
13:12 5.8 °C 5.1 °C 995.5 hPa WSW 3.2 km/h 16.1 km/h 95 % 0.8 mm
13:17 5.8 °C 5.1 °C 995.5 hPa SW 6.4 km/h 22.5 km/h 95 % 0.8 mm
13:22 5.8 °C 5.1 °C 995.5 hPa West 3.2 km/h 22.5 km/h 95 % 1.0 mm
13:27 5.7 °C 5.0 °C 995.5 hPa WSW 4.8 km/h 16.1 km/h 95 % 1.0 mm
13:32 5.7 °C 5.0 °C 995.5 hPa SSE 9.7 km/h 16.1 km/h 95 % 0.8 mm
13:37 5.7 °C 5.0 °C 995.5 hPa SW 6.4 km/h 14.5 km/h 95 % 1.0 mm
13:42 5.7 °C 5.0 °C 995.1 hPa SW 6.4 km/h 17.7 km/h 95 % 1.3 mm
13:47 5.7 °C 5.0 °C 995.1 hPa WSW 4.8 km/h 17.7 km/h 95 % 1.0 mm
13:52 5.7 °C 5.0 °C 995.1 hPa SW 4.8 km/h 16.1 km/h 95 % 1.3 mm
13:57 5.7 °C 5.0 °C 994.5 hPa SW 6.4 km/h 11.3 km/h 95 % 1.0 mm
14:02 5.7 °C 5.1 °C 994.5 hPa East 3.2 km/h 11.3 km/h 96 % 0.8 mm
14:07 5.8 °C 5.1 °C 994.8 hPa SW 4.8 km/h 11.3 km/h 95 % 0.8 mm
14:12 5.8 °C 5.1 °C 994.8 hPa West 6.4 km/h 9.7 km/h 95 % 0.8 mm
14:17 5.8 °C 5.2 °C 994.5 hPa West 4.8 km/h 11.3 km/h 96 % 0.5 mm
14:22 5.9 °C 5.2 °C 994.8 hPa SW 6.4 km/h 11.3 km/h 95 % 0.5 mm
14:27 5.9 °C 5.2 °C 995.1 hPa WNW 3.2 km/h 9.7 km/h 95 % 0.5 mm
14:32 5.9 °C 5.2 °C 995.1 hPa WSW 3.2 km/h 9.7 km/h 95 % 0.5 mm
14:37 6.0 °C 5.3 °C 995.1 hPa SW 3.2 km/h 9.7 km/h 95 % 0.5 mm
14:42 6.0 °C 5.3 °C 995.1 hPa SW 4.8 km/h 9.7 km/h 95 % 0.5 mm
14:47 6.0 °C 5.3 °C 995.1 hPa WSW 4.8 km/h 9.7 km/h 95 % 0.3 mm
14:52 6.1 °C 5.4 °C 994.8 hPa WNW 3.2 km/h 9.7 km/h 95 % 0.3 mm
14:57 6.1 °C 5.4 °C 994.5 hPa SW 8.0 km/h 11.3 km/h 95 % 0.3 mm
15:02 6.1 °C 5.4 °C 994.8 hPa SW 4.8 km/h 11.3 km/h 95 % 0.3 mm
15:07 6.1 °C 5.4 °C 994.5 hPa SW 8.0 km/h 11.3 km/h 95 % 0.3 mm
15:12 6.1 °C 5.4 °C 994.5 hPa WSW 4.8 km/h 11.3 km/h 95 % 0.3 mm
15:17 6.1 °C 5.4 °C 994.5 hPa SW 4.8 km/h 11.3 km/h 95 % 0.3 mm
15:22 6.1 °C 5.4 °C 994.8 hPa WSW 4.8 km/h 11.3 km/h 95 % 0.3 mm
15:27 6.1 °C 5.4 °C 994.8 hPa SW 6.4 km/h 11.3 km/h 95 % 0.3 mm
15:32 6.1 °C 5.4 °C 994.8 hPa WSW 4.8 km/h 9.7 km/h 95 % 0.0 mm
15:37 6.2 °C 5.3 °C 994.8 hPa SW 12.9 km/h 12.9 km/h 94 % 0.0 mm
15:42 6.3 °C 5.4 °C 994.8 hPa SW 6.4 km/h 19.3 km/h 94 % 0.0 mm
15:47 6.3 °C 5.3 °C 994.8 hPa SW 11.3 km/h 19.3 km/h 93 % 0.0 mm
15:52 6.4 °C 5.4 °C 995.1 hPa WSW 4.8 km/h 19.3 km/h 93 % 0.0 mm
15:57 6.4 °C 5.4 °C 995.1 hPa SW 9.7 km/h 14.5 km/h 93 % 0.0 mm
16:02 6.5 °C 5.4 °C 995.1 hPa SW 6.4 km/h 12.9 km/h 93 % 0.0 mm
16:07 6.5 °C 5.4 °C 995.1 hPa WSW 9.7 km/h 16.1 km/h 93 % 0.0 mm
16:12 6.6 °C 5.5 °C 995.5 hPa WSW 3.2 km/h 16.1 km/h 93 % 0.0 mm
16:17 6.6 °C 5.5 °C 995.5 hPa SW 4.8 km/h 16.1 km/h 93 % 0.0 mm
16:22 6.6 °C 5.5 °C 995.5 hPa Calm   12.9 km/h 93 % 0.0 mm
16:27 6.7 °C 5.5 °C 995.5 hPa SW 3.2 km/h 12.9 km/h 92 % 0.0 mm
16:32 6.7 °C 5.5 °C 995.5 hPa SSW 3.2 km/h 12.9 km/h 92 % 0.0 mm
16:37 6.8 °C 5.6 °C 995.5 hPa SW 9.7 km/h 14.5 km/h 92 % 0.0 mm
16:42 6.7 °C 5.6 °C 995.5 hPa WSW 6.4 km/h 14.5 km/h 93 % 0.0 mm
16:47 6.8 °C 5.7 °C 995.5 hPa West 4.8 km/h 12.9 km/h 93 % 0.0 mm
16:52 6.8 °C 5.7 °C 995.5 hPa SW 8.0 km/h 12.9 km/h 93 % 0.0 mm
16:57 6.8 °C 5.7 °C 995.5 hPa WSW 1.6 km/h 12.9 km/h 93 % 0.0 mm
17:02 6.8 °C 5.7 °C 995.5 hPa SW 4.8 km/h 11.3 km/h 93 % 0.0 mm
17:07 6.9 °C 5.7 °C 995.5 hPa SW 3.2 km/h 16.1 km/h 92 % 0.0 mm
17:12 7.0 °C 5.8 °C 995.8 hPa SW 4.8 km/h 16.1 km/h 92 % 0.0 mm
17:17 7.1 °C 5.9 °C 995.8 hPa SW 4.8 km/h 16.1 km/h 92 % 0.0 mm
17:22 7.1 °C 5.9 °C 995.8 hPa SW 4.8 km/h 16.1 km/h 92 % 0.0 mm
17:27 7.1 °C 5.9 °C 995.8 hPa SW 11.3 km/h 16.1 km/h 92 % 0.0 mm
17:32 7.1 °C 5.7 °C 995.8 hPa SW 4.8 km/h 12.9 km/h 91 % 0.0 mm
17:37 7.1 °C 5.7 °C 995.8 hPa Calm   12.9 km/h 91 % 0.0 mm
17:42 7.1 °C 5.9 °C 995.8 hPa SW 8.0 km/h 12.9 km/h 92 % 0.0 mm
17:47 7.1 °C 5.9 °C 996.2 hPa West 1.6 km/h 12.9 km/h 92 % 0.0 mm
17:52 7.1 °C 5.9 °C 996.2 hPa SW 3.2 km/h 12.9 km/h 92 % 0.0 mm
17:57 7.1 °C 5.9 °C 996.2 hPa WSW 3.2 km/h 12.9 km/h 92 % 0.0 mm
18:02 7.1 °C 5.9 °C 996.2 hPa SW 6.4 km/h 17.7 km/h 92 % 0.0 mm
18:07 7.2 °C 5.8 °C 996.2 hPa WSW 1.6 km/h 17.7 km/h 91 % 0.0 mm
18:12 7.2 °C 6.0 °C 996.2 hPa SW 3.2 km/h 17.7 km/h 92 % 0.0 mm
18:32 7.2 °C 6.0 °C 996.5 hPa South 4.8 km/h 12.9 km/h 92 % 0.0 mm
18:42 7.3 °C 6.1 °C 996.5 hPa SW 12.9 km/h 12.9 km/h 92 % 0.0 mm
18:47 7.3 °C 5.9 °C 996.2 hPa SW 8.0 km/h 14.5 km/h 91 % 0.0 mm
18:52 7.3 °C 5.9 °C 996.5 hPa SW 8.0 km/h 14.5 km/h 91 % 0.0 mm
18:57 7.3 °C 5.9 °C 996.5 hPa WSW 9.7 km/h 14.5 km/h 91 % 0.0 mm
19:02 7.3 °C 5.9 °C 996.5 hPa SW 4.8 km/h 14.5 km/h 91 % 0.0 mm
19:07 7.2 °C 5.8 °C 996.5 hPa West 6.4 km/h 14.5 km/h 91 % 0.0 mm
19:12 7.2 °C 5.8 °C 996.8 hPa SW 4.8 km/h 12.9 km/h 91 % 0.0 mm
19:17 7.2 °C 5.8 °C 996.8 hPa SW 3.2 km/h 17.7 km/h 91 % 0.0 mm
19:22 7.2 °C 5.8 °C 996.8 hPa SW 4.8 km/h 17.7 km/h 91 % 0.0 mm
19:27 7.3 °C 5.9 °C 996.5 hPa South 3.2 km/h 14.5 km/h 91 % 0.0 mm
19:32 7.3 °C 5.9 °C 996.5 hPa South 3.2 km/h 14.5 km/h 91 % 0.0 mm
19:37 7.2 °C 6.0 °C 996.5 hPa WSW 4.8 km/h 14.5 km/h 92 % 0.0 mm
19:47 7.2 °C 6.0 °C 996.8 hPa WSW 1.6 km/h 12.9 km/h 92 % 0.0 mm
19:52 7.2 °C 6.1 °C 996.5 hPa SW 11.3 km/h 11.3 km/h 93 % 0.3 mm
19:57 7.2 °C 6.1 °C 996.5 hPa SW 1.6 km/h 14.5 km/h 93 % 0.5 mm
20:02 7.2 °C 6.3 °C 996.5 hPa Calm   14.5 km/h 94 % 0.5 mm
20:07 7.1 °C 6.2 °C 996.5 hPa SW 1.6 km/h 14.5 km/h 94 % 1.0 mm
20:12 7.0 °C 6.3 °C 996.5 hPa SW 4.8 km/h 11.3 km/h 95 % 1.0 mm
20:17 7.0 °C 6.3 °C 996.2 hPa Calm   8.0 km/h 95 % 1.0 mm
20:22 6.9 °C 6.0 °C 996.2 hPa Calm   8.0 km/h 94 % 1.0 mm
20:27 6.9 °C 6.0 °C 996.2 hPa SW 4.8 km/h 8.0 km/h 94 % 1.0 mm
20:32 6.8 °C 5.9 °C 996.5 hPa SW 4.8 km/h 8.0 km/h 94 % 1.0 mm
20:37 6.8 °C 5.9 °C 996.5 hPa SW 1.6 km/h 11.3 km/h 94 % 1.0 mm
20:42 6.8 °C 5.9 °C 996.5 hPa Calm   11.3 km/h 94 % 1.0 mm
20:47 6.7 °C 5.8 °C 996.2 hPa Calm   11.3 km/h 94 % 0.8 mm
20:52 6.6 °C 5.7 °C 996.2 hPa Calm   6.4 km/h 94 % 0.8 mm
20:57 6.5 °C 5.8 °C 996.5 hPa Calm   4.8 km/h 95 % 0.5 mm
21:02 6.5 °C 5.8 °C 996.5 hPa Calm     95 % 0.5 mm
21:07 6.5 °C 5.8 °C 996.5 hPa Calm     95 % 0.0 mm
21:12 6.5 °C 5.8 °C 996.5 hPa Calm     95 % 0.0 mm
21:17 6.5 °C 5.8 °C 996.5 hPa Calm     95 % 0.0 mm
21:22 6.5 °C 5.8 °C 996.5 hPa Calm     95 % 0.0 mm
21:27 6.5 °C 5.8 °C 996.5 hPa Calm   1.6 km/h 95 % 0.0 mm
21:32 6.5 °C 5.8 °C 996.5 hPa Calm   1.6 km/h 95 % 0.0 mm
21:37 6.4 °C 5.7 °C 996.2 hPa Calm   1.6 km/h 95 % 0.0 mm
21:42 6.4 °C 5.7 °C 996.2 hPa Calm   3.2 km/h 95 % 0.0 mm
21:47 6.4 °C 5.7 °C 996.2 hPa Calm   3.2 km/h 95 % 0.0 mm
21:52 6.4 °C 5.7 °C 996.2 hPa Calm   3.2 km/h 95 % 0.0 mm
21:57 6.4 °C 5.7 °C 996.2 hPa Calm   1.6 km/h 95 % 0.0 mm
22:02 6.4 °C 5.7 °C 996.2 hPa Calm   1.6 km/h 95 % 0.0 mm
22:07 6.4 °C 5.7 °C 996.2 hPa Calm   1.6 km/h 95 % 0.0 mm
22:12 6.4 °C 5.7 °C 995.8 hPa Calm   1.6 km/h 95 % 0.0 mm
22:32 6.3 °C 5.6 °C 995.5 hPa Calm   6.4 km/h 95 % 0.0 mm
22:37 6.2 °C 5.5 °C 995.5 hPa Calm   6.4 km/h 95 % 0.0 mm
22:42 6.2 °C 5.5 °C 995.5 hPa West 1.6 km/h 3.2 km/h 95 % 0.0 mm
22:47 6.2 °C 5.5 °C 995.5 hPa Calm   3.2 km/h 95 % 0.0 mm
22:52 6.1 °C 5.4 °C 995.5 hPa Calm   3.2 km/h 95 % 0.0 mm
22:57 6.0 °C 5.3 °C 995.1 hPa Calm   1.6 km/h 95 % 0.0 mm
23:02 6.0 °C 5.3 °C 995.1 hPa Calm   1.6 km/h 95 % 0.0 mm
23:07 5.9 °C 5.2 °C 995.1 hPa Calm     95 % 0.0 mm
23:12 5.9 °C 5.2 °C 995.1 hPa Calm     95 % 0.0 mm
23:22 5.8 °C 5.1 °C 994.8 hPa Calm   1.6 km/h 95 % 0.0 mm
23:27 5.7 °C 5.0 °C 994.8 hPa Calm   1.6 km/h 95 % 0.0 mm
23:32 5.7 °C 5.0 °C 994.8 hPa Calm     95 % 0.0 mm
23:37 5.7 °C 5.1 °C 994.8 hPa Calm     96 % 0.0 mm
23:42 5.6 °C 5.0 °C 994.8 hPa Calm     96 % 0.0 mm
23:47 5.5 °C 4.9 °C 994.8 hPa Calm     96 % 0.0 mm
23:52 5.5 °C 4.9 °C 994.8 hPa Calm     96 % 0.0 mm
23:57 5.6 °C 5.0 °C 994.8 hPa Calm     96 % 0.0 mm
Meteo18
Compliments of Weather Underground - 4 mb

Script developed by  Jim McMurry - jmcmurry@mwt.net Adapted for the template by  Wim van der Kuil - Leuven-Template.eu

You find our weather info also at:

European Weather Network

Weather Underground

Equipment we use:

Weather-station
Davis Vue

Weather-program
Meteohub

Weather-server
Raspberry PI 2 B+

Provider
1 and 1

Davis Vue

Meteohub

Raspberry PI 2 B+

1 and 1